ANA541 RJOO-RJFK

Flight info

Callsign ANA541
Flight time 1h 13m
Altitude 36000
Route TIGER DCT MAIKO DCT AWAJI Y232 KRE Y756 VIRUD Y757 SPICA
Aircraft A21N/M-SDE3FGHIRWY/LB1

Departure

Time 2026-04-30 12:11
Airport Osaka Itami International Airport (RJOO)

Arrival

Time 2026-04-30 13:25
Airport Kagoshima Airport (RJFK)
Time Latitude Longitude Altitude Speed Heading
2026-04-30 11:55 34.78716 135.44385 56 ft 0 kts 352°
2026-04-30 12:01 34.78713 135.44386 56 ft 2 kts 352°
2026-04-30 12:01 34.78698 135.44388 56 ft 2 kts 352°
2026-04-30 12:02 34.78683 135.44391 56 ft 2 kts 352°
2026-04-30 12:02 34.78668 135.44394 56 ft 2 kts 347°
2026-04-30 12:02 34.78656 135.44403 56 ft 2 kts 305°
2026-04-30 12:02 34.78650 135.44420 56 ft 2 kts 271°
2026-04-30 12:03 34.78653 135.44438 56 ft 2 kts 248°
2026-04-30 12:03 34.78669 135.44469 56 ft 2 kts 222°
2026-04-30 12:03 34.78676 135.44476 56 ft 0 kts 223°
2026-04-30 12:04 34.78677 135.44478 56 ft 0 kts 223°
2026-04-30 12:05 34.78676 135.44476 56 ft 0 kts 224°
2026-04-30 12:05 34.78664 135.44463 56 ft 4 kts 225°
2026-04-30 12:05 34.78634 135.44424 56 ft 8 kts 225°
2026-04-30 12:06 34.78586 135.44367 56 ft 10 kts 225°
2026-04-30 12:06 34.78559 135.44341 56 ft 3 kts 201°
2026-04-30 12:06 34.78530 135.44336 56 ft 4 kts 182°
2026-04-30 12:06 34.78491 135.44334 56 ft 6 kts 180°
2026-04-30 12:07 34.78439 135.44334 56 ft 8 kts 179°
2026-04-30 12:07 34.78374 135.44336 56 ft 10 kts 179°
2026-04-30 12:07 34.78297 135.44334 56 ft 11 kts 180°
2026-04-30 12:07 34.78208 135.44334 56 ft 12 kts 179°
2026-04-30 12:08 34.78133 135.44388 56 ft 13 kts 134°
2026-04-30 12:08 34.78060 135.44476 56 ft 16 kts 135°
2026-04-30 12:08 34.77970 135.44585 56 ft 18 kts 135°
2026-04-30 12:08 34.77877 135.44698 56 ft 18 kts 135°
2026-04-30 12:09 34.77787 135.44807 56 ft 18 kts 135°
2026-04-30 12:09 34.77693 135.44910 56 ft 17 kts 149°
2026-04-30 12:09 34.77583 135.44974 56 ft 16 kts 155°
2026-04-30 12:09 34.77515 135.45012 56 ft 8 kts 155°
2026-04-30 12:10 34.77458 135.45010 56 ft 8 kts 214°
2026-04-30 12:10 34.77422 135.44955 56 ft 7 kts 266°
2026-04-30 12:10 34.77439 135.44922 56 ft 0 kts 314°
2026-04-30 12:10 34.77489 135.44862 56 ft 40 kts 315°
2026-04-30 12:11 34.77867 135.44403 56 ft 111 kts 315°
2026-04-30 12:11 34.78565 135.43555 58 ft 169 kts 316°
2026-04-30 12:11 34.79414 135.42516 561 ft 174 kts 319°
2026-04-30 12:11 34.80248 135.41487 1173 ft 177 kts 311°
2026-04-30 12:12 34.80722 135.40112 1747 ft 187 kts 274°
2026-04-30 12:12 34.80346 135.38666 2324 ft 180 kts 221°
2026-04-30 12:12 34.79254 135.38062 2750 ft 178 kts 180°
2026-04-30 12:12 34.78035 135.38034 3244 ft 180 kts 178°
2026-04-30 12:13 34.76880 135.38019 3548 ft 193 kts 177°
2026-04-30 12:13 34.75583 135.38007 3847 ft 209 kts 177°
2026-04-30 12:13 34.74019 135.37991 4135 ft 230 kts 177°
2026-04-30 12:13 34.72257 135.37761 4563 ft 250 kts 187°
2026-04-30 12:14 34.70614 135.37318 5114 ft 261 kts 189°
2026-04-30 12:14 34.68853 135.36824 5921 ft 262 kts 187°
2026-04-30 12:14 34.67169 135.36298 6728 ft 266 kts 196°
2026-04-30 12:14 34.65689 135.34946 7451 ft 283 kts 229°
2026-04-30 12:15 34.64854 135.32758 8263 ft 292 kts 247°
2026-04-30 12:15 34.64275 135.30576 8976 ft 295 kts 247°
2026-04-30 12:15 34.63641 135.28189 9791 ft 295 kts 248°
2026-04-30 12:15 34.62977 135.25853 10615 ft 293 kts 244°
2026-04-30 12:16 34.61948 135.23712 11036 ft 303 kts 231°
2026-04-30 12:16 34.60605 135.21748 11755 ft 304 kts 229°
2026-04-30 12:16 34.59255 135.19849 12627 ft 300 kts 231°
2026-04-30 12:16 34.57948 135.17964 13362 ft 300 kts 232°
2026-04-30 12:17 34.55298 135.14017 14682 ft 305 kts 232°
2026-04-30 12:17 34.53973 135.12019 15317 ft 307 kts 232°
2026-04-30 12:17 34.52629 135.09984 15642 ft 319 kts 232°
2026-04-30 12:18 34.51257 135.07903 15879 ft 332 kts 232°
2026-04-30 12:18 34.49790 135.05676 16112 ft 345 kts 232°
2026-04-30 12:18 34.48288 135.03397 16331 ft 357 kts 232°
2026-04-30 12:18 34.46728 135.01030 16539 ft 368 kts 232°
2026-04-30 12:19 34.45129 134.98608 16741 ft 379 kts 232°
2026-04-30 12:19 34.43483 134.96115 17119 ft 383 kts 232°
2026-04-30 12:19 34.41819 134.93594 17605 ft 385 kts 232°
2026-04-30 12:19 34.40184 134.91116 18081 ft 386 kts 232°
2026-04-30 12:20 34.38522 134.88602 18536 ft 388 kts 232°
2026-04-30 12:20 34.36839 134.86058 18981 ft 390 kts 232°
2026-04-30 12:20 34.35135 134.83487 19414 ft 391 kts 232°
2026-04-30 12:20 34.33448 134.80940 19848 ft 392 kts 232°
2026-04-30 12:21 34.31764 134.78401 20397 ft 390 kts 232°
2026-04-30 12:21 34.30085 134.75873 20992 ft 386 kts 232°
2026-04-30 12:21 34.28457 134.73421 21540 ft 384 kts 232°
2026-04-30 12:21 34.26791 134.70917 22079 ft 382 kts 232°
2026-04-30 12:22 34.25109 134.68471 22597 ft 380 kts 231°
2026-04-30 12:22 34.23404 134.66028 23100 ft 378 kts 231°
2026-04-30 12:22 34.21735 134.63638 23596 ft 377 kts 232°
2026-04-30 12:22 34.20053 134.61234 24094 ft 375 kts 232°
2026-04-30 12:23 34.18401 134.58868 24584 ft 373 kts 232°
2026-04-30 12:23 34.16752 134.56505 25097 ft 370 kts 232°
2026-04-30 12:23 34.15106 134.54149 25619 ft 367 kts 231°
2026-04-30 12:23 34.13480 134.51814 26157 ft 363 kts 230°
2026-04-30 12:24 34.11935 134.49593 26776 ft 354 kts 230°
2026-04-30 12:24 34.10394 134.47395 27528 ft 344 kts 230°
2026-04-30 12:24 34.08880 134.45239 28419 ft 330 kts 230°
2026-04-30 12:24 34.07450 134.43202 29210 ft 319 kts 230°
2026-04-30 12:25 34.06033 134.41185 29716 ft 315 kts 230°
2026-04-30 12:25 34.04615 134.39166 29933 ft 320 kts 230°
2026-04-30 12:25 34.01669 134.34970 29935 ft 339 kts 229°
2026-04-30 12:26 33.98560 134.30551 29934 ft 357 kts 230°
2026-04-30 12:26 33.95335 134.25972 29930 ft 360 kts 230°
2026-04-30 12:27 33.92094 134.21376 29929 ft 360 kts 230°
2026-04-30 12:27 33.88887 134.16824 29932 ft 360 kts 230°
2026-04-30 12:28 33.85679 134.12280 29929 ft 359 kts 230°
2026-04-30 12:28 33.82441 134.07701 29928 ft 359 kts 230°
2026-04-30 12:29 33.79233 134.03169 29925 ft 359 kts 230°
2026-04-30 12:29 33.76061 133.98695 29922 ft 360 kts 230°
2026-04-30 12:30 33.72846 133.94170 29916 ft 359 kts 230°
2026-04-30 12:30 33.69624 133.89635 29909 ft 360 kts 230°
2026-04-30 12:31 33.66373 133.85069 29905 ft 361 kts 230°
2026-04-30 12:31 33.63145 133.80545 29902 ft 361 kts 230°
2026-04-30 12:32 33.59951 133.76070 29901 ft 361 kts 230°
2026-04-30 12:32 33.56764 133.71527 29901 ft 362 kts 232°
2026-04-30 12:33 33.53855 133.66713 29901 ft 362 kts 236°
2026-04-30 12:33 33.51268 133.61565 29901 ft 363 kts 239°
2026-04-30 12:34 33.48853 133.56352 29900 ft 363 kts 239°
2026-04-30 12:34 33.46449 133.51150 29901 ft 364 kts 239°
2026-04-30 12:35 33.44067 133.46019 29900 ft 364 kts 238°
2026-04-30 12:35 33.41303 133.41058 29901 ft 363 kts 233°
2026-04-30 12:36 33.38070 133.36496 29901 ft 364 kts 227°
2026-04-30 12:36 33.34469 133.32315 29902 ft 365 kts 225°
2026-04-30 12:37 33.31032 133.28412 29901 ft 365 kts 225°
2026-04-30 12:37 33.27311 133.24213 29901 ft 365 kts 225°
2026-04-30 12:38 33.23723 133.20177 29901 ft 366 kts 224°
2026-04-30 12:38 33.20087 133.16095 29900 ft 366 kts 224°
2026-04-30 12:39 33.16416 133.11977 29897 ft 366 kts 224°
2026-04-30 12:39 33.12812 133.07938 29891 ft 366 kts 225°
2026-04-30 12:40 33.09148 133.03834 29883 ft 366 kts 225°
2026-04-30 12:40 33.05467 132.99721 29875 ft 366 kts 225°
2026-04-30 12:41 33.01848 132.95682 29866 ft 366 kts 225°
2026-04-30 12:41 32.98112 132.91518 29857 ft 366 kts 225°
2026-04-30 12:42 32.94417 132.87404 29851 ft 367 kts 225°
2026-04-30 12:42 32.90702 132.83275 29850 ft 367 kts 225°
2026-04-30 12:43 32.87030 132.79198 29853 ft 367 kts 225°
2026-04-30 12:43 32.83316 132.75081 29853 ft 367 kts 225°
2026-04-30 12:44 32.79610 132.70975 29852 ft 367 kts 225°
2026-04-30 12:44 32.75897 132.66859 29850 ft 367 kts 225°
2026-04-30 12:45 32.72180 132.62747 29851 ft 367 kts 225°
2026-04-30 12:45 32.68520 132.58702 29853 ft 367 kts 225°
2026-04-30 12:46 32.64849 132.54652 29857 ft 367 kts 225°
2026-04-30 12:46 32.61146 132.50571 29860 ft 367 kts 225°
2026-04-30 12:47 32.57428 132.46478 29861 ft 366 kts 225°
2026-04-30 12:47 32.53729 132.42412 29856 ft 366 kts 225°
2026-04-30 12:48 32.50016 132.38335 29583 ft 365 kts 225°
2026-04-30 12:48 32.48164 132.36304 29334 ft 364 kts 225°
2026-04-30 12:48 32.46371 132.34340 29077 ft 363 kts 224°
2026-04-30 12:49 32.44562 132.32358 28788 ft 361 kts 224°
2026-04-30 12:49 32.42724 132.30345 28437 ft 359 kts 224°
2026-04-30 12:49 32.40935 132.28389 28006 ft 357 kts 224°
2026-04-30 12:49 32.39137 132.26408 27536 ft 354 kts 225°
2026-04-30 12:50 32.37483 132.24356 27062 ft 351 kts 229°
2026-04-30 12:50 32.35973 132.22165 26582 ft 348 kts 232°
2026-04-30 12:50 32.34659 132.19934 26114 ft 345 kts 236°
2026-04-30 12:50 32.33392 132.17535 25635 ft 342 kts 237°
2026-04-30 12:51 32.32161 132.15187 25164 ft 339 kts 237°
2026-04-30 12:51 32.30945 132.12863 24704 ft 336 kts 237°
2026-04-30 12:51 32.29723 132.10521 24246 ft 333 kts 237°
2026-04-30 12:51 32.28522 132.08223 23799 ft 330 kts 237°
2026-04-30 12:52 32.27340 132.05960 23357 ft 327 kts 237°
2026-04-30 12:52 32.26158 132.03700 22918 ft 325 kts 237°
2026-04-30 12:52 32.24978 132.01443 22476 ft 322 kts 237°
2026-04-30 12:52 32.23812 131.99214 22028 ft 319 kts 237°
2026-04-30 12:53 32.22656 131.97005 21573 ft 317 kts 237°
2026-04-30 12:53 32.21507 131.94809 21031 ft 317 kts 237°
2026-04-30 12:53 32.20354 131.92609 20383 ft 318 kts 238°
2026-04-30 12:53 32.19198 131.90401 19859 ft 316 kts 238°
2026-04-30 12:54 32.18053 131.88216 19360 ft 313 kts 238°
2026-04-30 12:54 32.16922 131.86058 18862 ft 310 kts 238°
2026-04-30 12:54 32.15812 131.83943 18368 ft 308 kts 238°
2026-04-30 12:54 32.14692 131.81807 17858 ft 306 kts 238°
2026-04-30 12:55 32.13594 131.79713 17357 ft 304 kts 238°
2026-04-30 12:55 32.12487 131.77600 16818 ft 303 kts 238°
2026-04-30 12:55 32.11389 131.75510 16276 ft 302 kts 238°
2026-04-30 12:55 32.10292 131.73421 15730 ft 301 kts 238°
2026-04-30 12:56 32.09199 131.71341 15189 ft 301 kts 238°
2026-04-30 12:56 32.08096 131.69244 14650 ft 300 kts 238°
2026-04-30 12:56 32.06987 131.67139 14105 ft 300 kts 238°
2026-04-30 12:56 32.05896 131.65068 13571 ft 299 kts 238°
2026-04-30 12:57 32.04794 131.62981 13037 ft 299 kts 238°
2026-04-30 12:57 32.03699 131.60906 12506 ft 298 kts 238°
2026-04-30 12:57 32.02624 131.58868 11986 ft 298 kts 238°
2026-04-30 12:57 32.01535 131.56808 11462 ft 298 kts 238°
2026-04-30 12:58 32.00453 131.54762 10940 ft 297 kts 238°
2026-04-30 12:58 31.99367 131.52712 10446 ft 296 kts 238°
2026-04-30 12:58 31.98291 131.50679 10240 ft 285 kts 238°
2026-04-30 12:58 31.97266 131.48744 10048 ft 275 kts 238°
2026-04-30 12:59 31.96272 131.46867 9959 ft 261 kts 238°
2026-04-30 12:59 31.95321 131.45071 9958 ft 258 kts 238°
2026-04-30 12:59 31.94374 131.43286 9955 ft 258 kts 238°
2026-04-30 12:59 31.93418 131.41493 9860 ft 254 kts 238°
2026-04-30 13:00 31.92491 131.39757 9437 ft 255 kts 238°
2026-04-30 13:00 31.91542 131.37982 8963 ft 257 kts 238°
2026-04-30 13:00 31.90590 131.36202 8538 ft 257 kts 238°
2026-04-30 13:00 31.89642 131.34428 8127 ft 257 kts 238°
2026-04-30 13:01 31.88691 131.32655 7730 ft 256 kts 238°
2026-04-30 13:01 31.87743 131.30884 7330 ft 256 kts 238°
2026-04-30 13:01 31.86797 131.29118 6932 ft 256 kts 238°
2026-04-30 13:01 31.85844 131.27339 6591 ft 253 kts 238°
2026-04-30 13:02 31.84900 131.25580 6464 ft 256 kts 238°
2026-04-30 13:02 31.83952 131.23813 6340 ft 257 kts 238°
2026-04-30 13:02 31.82993 131.22026 6215 ft 257 kts 238°
2026-04-30 13:02 31.82045 131.20262 6089 ft 257 kts 238°
2026-04-30 13:03 31.81095 131.18495 5972 ft 256 kts 238°
2026-04-30 13:03 31.80142 131.16722 5966 ft 257 kts 238°
2026-04-30 13:03 31.79188 131.14947 5965 ft 257 kts 238°
2026-04-30 13:03 31.78240 131.13188 5966 ft 257 kts 238°
2026-04-30 13:04 31.77273 131.11391 5967 ft 257 kts 238°
2026-04-30 13:04 31.76326 131.09633 5964 ft 249 kts 238°
2026-04-30 13:04 31.75433 131.07977 5963 ft 235 kts 238°
2026-04-30 13:04 31.74585 131.06398 5827 ft 235 kts 238°
2026-04-30 13:05 31.73702 131.04752 5666 ft 235 kts 238°
2026-04-30 13:05 31.72831 131.03131 5484 ft 235 kts 238°
2026-04-30 13:05 31.71964 131.01515 5233 ft 236 kts 238°
2026-04-30 13:06 31.70225 130.98283 4711 ft 230 kts 238°
2026-04-30 13:06 31.69397 130.96744 4490 ft 225 kts 238°
2026-04-30 13:06 31.68579 130.95224 4319 ft 217 kts 239°
2026-04-30 13:06 31.67794 130.93767 4248 ft 207 kts 239°
2026-04-30 13:07 31.67098 130.92291 4188 ft 204 kts 248°
2026-04-30 13:07 31.66677 130.90750 4102 ft 197 kts 257°
2026-04-30 13:07 31.66381 130.89192 4000 ft 197 kts 259°
2026-04-30 13:07 31.66102 130.87625 3868 ft 194 kts 259°
2026-04-30 13:08 31.66033 130.86099 3717 ft 184 kts 281°
2026-04-30 13:08 31.66401 130.84660 3580 ft 181 kts 290°
2026-04-30 13:08 31.66829 130.83301 3302 ft 176 kts 291°
2026-04-30 13:08 31.67253 130.81973 3052 ft 169 kts 291°
2026-04-30 13:09 31.67682 130.80721 2841 ft 165 kts 302°
2026-04-30 13:09 31.68523 130.79858 2825 ft 159 kts 329°
2026-04-30 13:09 31.69475 130.79230 2794 ft 156 kts 331°
2026-04-30 13:09 31.70414 130.78626 2786 ft 156 kts 331°
2026-04-30 13:10 31.71372 130.78005 2738 ft 154 kts 330°
2026-04-30 13:10 31.72274 130.77409 2456 ft 146 kts 330°
2026-04-30 13:10 31.73151 130.76816 2257 ft 145 kts 329°
2026-04-30 13:10 31.74018 130.76227 2073 ft 144 kts 329°
2026-04-30 13:11 31.74875 130.75644 1886 ft 144 kts 329°
2026-04-30 13:11 31.75747 130.75050 1697 ft 143 kts 329°
2026-04-30 13:11 31.76607 130.74469 1510 ft 143 kts 329°
2026-04-30 13:11 31.77472 130.73880 1283 ft 142 kts 329°
2026-04-30 13:12 31.78329 130.73306 1125 ft 142 kts 328°
2026-04-30 13:12 31.79187 130.72719 969 ft 146 kts 329°
2026-04-30 13:12 31.80113 130.72101 1477 ft 160 kts 329°
2026-04-30 13:13 31.82135 130.70752 2785 ft 187 kts 323°
2026-04-30 13:13 31.82934 130.69481 3259 ft 204 kts 286°
2026-04-30 13:13 31.83262 130.65999 4112 ft 225 kts 268°
2026-04-30 13:14 31.82821 130.64262 4488 ft 229 kts 237°
2026-04-30 13:14 31.81629 130.63029 4869 ft 234 kts 207°
2026-04-30 13:14 31.78502 130.62036 4957 ft 234 kts 193°
2026-04-30 13:15 31.76911 130.61684 4956 ft 234 kts 193°
2026-04-30 13:15 31.73727 130.61083 4949 ft 236 kts 180°
2026-04-30 13:15 31.72159 130.61620 4952 ft 242 kts 152°
2026-04-30 13:16 31.70771 130.62732 4957 ft 243 kts 145°
2026-04-30 13:16 31.69475 130.63928 4956 ft 243 kts 143°
2026-04-30 13:16 31.68177 130.65161 4956 ft 243 kts 143°
2026-04-30 13:17 31.65563 130.67659 4955 ft 243 kts 143°
2026-04-30 13:17 31.64260 130.68903 4956 ft 243 kts 143°
2026-04-30 13:17 31.62082 130.70984 4955 ft 243 kts 143°
2026-04-30 13:18 31.60367 130.72626 4949 ft 235 kts 143°
2026-04-30 13:18 31.58576 130.75633 4797 ft 228 kts 94°
2026-04-30 13:18 31.58720 130.77429 4650 ft 218 kts 77°
2026-04-30 13:19 31.59079 130.79091 4532 ft 204 kts 73°
2026-04-30 13:19 31.59462 130.80662 4332 ft 194 kts 70°
2026-04-30 13:19 31.60130 130.81897 4101 ft 182 kts 35°
2026-04-30 13:19 31.61232 130.82426 3929 ft 169 kts
2026-04-30 13:20 31.62407 130.82634 3722 ft 168 kts
2026-04-30 13:20 31.63546 130.82687 3487 ft 160 kts 349°
2026-04-30 13:20 31.64583 130.82359 3466 ft 157 kts 337°
2026-04-30 13:20 31.65583 130.81834 3469 ft 161 kts 332°
2026-04-30 13:21 31.66585 130.81226 3498 ft 162 kts 330°
2026-04-30 13:21 31.67568 130.80588 3467 ft 163 kts 329°
2026-04-30 13:21 31.68524 130.79947 3285 ft 155 kts 329°
2026-04-30 13:22 31.70302 130.78740 2892 ft 146 kts 329°
2026-04-30 13:22 31.71175 130.78146 2702 ft 146 kts 329°
2026-04-30 13:22 31.72933 130.76955 2320 ft 144 kts 329°
2026-04-30 13:23 31.73791 130.76373 2131 ft 144 kts 329°
2026-04-30 13:23 31.75523 130.75201 1743 ft 143 kts 329°
2026-04-30 13:24 31.77235 130.74045 1360 ft 142 kts 328°
2026-04-30 13:24 31.78951 130.72882 992 ft 142 kts 328°
2026-04-30 13:25 31.80230 130.72012 901 ft 48 kts 330°
2026-04-30 13:25 31.80506 130.71753 901 ft 13 kts 246°
2026-04-30 13:26 31.80397 130.71669 901 ft 5 kts 185°
2026-04-30 13:26 31.80348 130.71596 901 ft 6 kts 240°
2026-04-30 13:27 31.80322 130.71545 901 ft 0 kts 240°